DLH204 EDDF-EGKK

Flight info

Callsign DLH204
Flight time 1h 7m
Altitude 36000
Route OBOKA3M/25C OBOKA Z29 TORNU DCT GALSO Q63 ARREK Y4 TEBRA
Aircraft A320/M-SDE3FGHIRWY/LB1

Departure

Time 2026-04-18 09:27
Airport Frankfurt Main Airport (EDDF)

Arrival

Time 2026-04-18 10:34
Airport London Gatwick Airport (EGKK)
Time Latitude Longitude Altitude Speed Heading
2026-04-18 09:02 50.04542 8.56747 355 ft 0 kts 293°
2026-04-18 09:17 50.04537 8.56766 355 ft 3 kts 294°
2026-04-18 09:17 50.04528 8.56795 350 ft 3 kts 295°
2026-04-18 09:17 50.04521 8.56820 349 ft 3 kts 292°
2026-04-18 09:17 50.04516 8.56848 348 ft 3 kts 265°
2026-04-18 09:18 50.04521 8.56874 349 ft 3 kts 221°
2026-04-18 09:18 50.04534 8.56886 354 ft 1 kts 195°
2026-04-18 09:18 50.04539 8.56889 354 ft 0 kts 195°
2026-04-18 09:20 50.04534 8.56888 355 ft 6 kts 187°
2026-04-18 09:21 50.04435 8.56868 345 ft 22 kts 204°
2026-04-18 09:21 50.04341 8.56832 345 ft 7 kts 188°
2026-04-18 09:21 50.04299 8.56835 351 ft 12 kts 159°
2026-04-18 09:21 50.04303 8.56995 351 ft 23 kts 71°
2026-04-18 09:22 50.04359 8.57234 350 ft 14 kts 70°
2026-04-18 09:22 50.04389 8.57366 352 ft 12 kts 71°
2026-04-18 09:22 50.04407 8.57449 348 ft 12 kts 71°
2026-04-18 09:22 50.04427 8.57607 353 ft 9 kts 114°
2026-04-18 09:23 50.04387 8.57652 351 ft 0 kts 156°
2026-04-18 09:24 50.04366 8.57667 355 ft 15 kts 156°
2026-04-18 09:24 50.04267 8.57655 354 ft 13 kts 234°
2026-04-18 09:25 50.04257 8.57622 348 ft 0 kts 249°
2026-04-18 09:26 50.04190 8.57355 351 ft 64 kts 249°
2026-04-18 09:26 50.03959 8.56379 349 ft 126 kts 249°
2026-04-18 09:26 50.03588 8.54854 353 ft 174 kts 248°
2026-04-18 09:26 50.03134 8.53087 895 ft 176 kts 250°
2026-04-18 09:27 50.02705 8.51311 1625 ft 176 kts 250°
2026-04-18 09:27 50.01928 8.49753 2017 ft 198 kts 209°
2026-04-18 09:27 50.00569 8.49057 2490 ft 210 kts 197°
2026-04-18 09:27 49.99155 8.48441 3178 ft 211 kts 197°
2026-04-18 09:28 49.97747 8.47812 3907 ft 210 kts 198°
2026-04-18 09:28 49.96344 8.47183 4633 ft 210 kts 198°
2026-04-18 09:28 49.94911 8.46533 5170 ft 221 kts 198°
2026-04-18 09:28 49.93362 8.45820 5605 ft 240 kts 198°
2026-04-18 09:29 49.91840 8.44750 6407 ft 243 kts 216°
2026-04-18 09:29 49.90650 8.42884 7233 ft 246 kts 236°
2026-04-18 09:29 49.89764 8.40598 8062 ft 249 kts 239°
2026-04-18 09:29 49.88967 8.38199 8858 ft 253 kts 250°
2026-04-18 09:30 49.88613 8.35484 9464 ft 268 kts 268°
2026-04-18 09:30 49.88737 8.32529 10018 ft 280 kts 275°
2026-04-18 09:30 49.88920 8.29473 10541 ft 294 kts 277°
2026-04-18 09:30 49.89454 8.26294 10758 ft 318 kts 292°
2026-04-18 09:31 49.90604 8.23335 11203 ft 331 kts 306°
2026-04-18 09:31 49.91993 8.20452 11909 ft 335 kts 305°
2026-04-18 09:31 49.93385 8.17542 12716 ft 336 kts 306°
2026-04-18 09:31 49.94965 8.14857 13517 ft 339 kts 316°
2026-04-18 09:32 49.96754 8.12457 14264 ft 341 kts 317°
2026-04-18 09:32 49.98555 8.10050 14927 ft 343 kts 317°
2026-04-18 09:32 50.00370 8.07625 15558 ft 346 kts 317°
2026-04-18 09:32 50.02202 8.05178 16182 ft 349 kts 317°
2026-04-18 09:33 50.04048 8.02709 16805 ft 352 kts 317°
2026-04-18 09:33 50.05912 8.00210 17414 ft 355 kts 317°
2026-04-18 09:33 50.07789 7.97692 18018 ft 358 kts 316°
2026-04-18 09:33 50.09688 7.95140 18600 ft 362 kts 316°
2026-04-18 09:34 50.11601 7.92571 19123 ft 365 kts 316°
2026-04-18 09:34 50.13531 7.89977 19669 ft 368 kts 316°
2026-04-18 09:34 50.15475 7.87355 20187 ft 371 kts 316°
2026-04-18 09:34 50.17432 7.84708 20691 ft 375 kts 316°
2026-04-18 09:35 50.19414 7.82027 21195 ft 378 kts 316°
2026-04-18 09:35 50.21408 7.79328 21723 ft 381 kts 316°
2026-04-18 09:35 50.23420 7.76600 22243 ft 384 kts 316°
2026-04-18 09:35 50.25557 7.74042 22746 ft 391 kts 324°
2026-04-18 09:36 50.27986 7.72071 23230 ft 398 kts 333°
2026-04-18 09:36 50.30538 7.70344 23717 ft 401 kts 333°
2026-04-18 09:36 50.33100 7.68595 24118 ft 403 kts 333°
2026-04-18 09:36 50.35678 7.66823 24513 ft 406 kts 332°
2026-04-18 09:37 50.38269 7.65040 24910 ft 408 kts 332°
2026-04-18 09:37 50.40874 7.63248 25304 ft 410 kts 332°
2026-04-18 09:37 50.43493 7.61445 25671 ft 412 kts 332°
2026-04-18 09:37 50.46129 7.59635 26040 ft 415 kts 332°
2026-04-18 09:38 50.48779 7.57815 26396 ft 417 kts 332°
2026-04-18 09:38 50.51444 7.55976 26741 ft 419 kts 332°
2026-04-18 09:38 50.54121 7.54125 27106 ft 421 kts 332°
2026-04-18 09:38 50.56724 7.52030 27446 ft 419 kts 324°
2026-04-18 09:39 50.59171 7.49531 27785 ft 421 kts 323°
2026-04-18 09:39 50.61627 7.47006 28120 ft 423 kts 323°
2026-04-18 09:39 50.64092 7.44476 28506 ft 424 kts 322°
2026-04-18 09:39 50.66574 7.41930 28823 ft 427 kts 322°
2026-04-18 09:40 50.69068 7.39374 29133 ft 429 kts 322°
2026-04-18 09:40 50.71541 7.36745 29437 ft 428 kts 318°
2026-04-18 09:40 50.73750 7.33614 29737 ft 425 kts 309°
2026-04-18 09:40 50.75590 7.29995 30014 ft 422 kts 300°
2026-04-18 09:41 50.77051 7.25975 30289 ft 420 kts 294°
2026-04-18 09:41 50.78383 7.21859 30517 ft 422 kts 294°
2026-04-18 09:41 50.79727 7.17724 30735 ft 424 kts 294°
2026-04-18 09:41 50.81078 7.13570 30950 ft 425 kts 294°
2026-04-18 09:42 50.82434 7.09409 31156 ft 427 kts 294°
2026-04-18 09:42 50.83789 7.05236 31405 ft 426 kts 294°
2026-04-18 09:42 50.85138 7.01061 31724 ft 425 kts 293°
2026-04-18 09:42 50.86481 6.96898 32020 ft 424 kts 293°
2026-04-18 09:43 50.87822 6.92736 32311 ft 424 kts 293°
2026-04-18 09:43 50.89158 6.88584 32593 ft 423 kts 292°
2026-04-18 09:43 50.90490 6.84429 32875 ft 423 kts 292°
2026-04-18 09:43 50.91820 6.80281 33159 ft 422 kts 292°
2026-04-18 09:44 50.93149 6.76136 33440 ft 422 kts 292°
2026-04-18 09:44 50.94475 6.71990 33730 ft 421 kts 292°
2026-04-18 09:44 50.95797 6.67853 34017 ft 421 kts 292°
2026-04-18 09:44 50.97118 6.63710 34293 ft 420 kts 292°
2026-04-18 09:45 50.98434 6.59575 34564 ft 420 kts 292°
2026-04-18 09:45 50.99750 6.55438 34797 ft 419 kts 292°
2026-04-18 09:45 51.01062 6.51306 35025 ft 419 kts 292°
2026-04-18 09:45 51.02369 6.47180 35257 ft 418 kts 291°
2026-04-18 09:46 51.03676 6.43040 35464 ft 418 kts 291°
2026-04-18 09:46 51.04974 6.38915 35679 ft 418 kts 291°
2026-04-18 09:46 51.06272 6.34786 35871 ft 417 kts 291°
2026-04-18 09:46 51.07565 6.30661 36074 ft 417 kts 291°
2026-04-18 09:47 51.08859 6.26530 36187 ft 416 kts 291°
2026-04-18 09:47 51.10132 6.22462 36217 ft 415 kts 291°
2026-04-18 09:47 51.12711 6.14196 36214 ft 413 kts 291°
2026-04-18 09:48 51.14709 6.05807 36220 ft 404 kts 280°
2026-04-18 09:48 51.16109 5.97129 36210 ft 404 kts 280°
2026-04-18 09:49 51.17507 5.88448 36214 ft 404 kts 280°
2026-04-18 09:49 51.18973 5.79788 36221 ft 406 kts 283°
2026-04-18 09:50 51.20834 5.71262 36230 ft 408 kts 285°
2026-04-18 09:50 51.22818 5.62796 36249 ft 407 kts 285°
2026-04-18 09:51 51.24722 5.54301 36234 ft 406 kts 284°
2026-04-18 09:51 51.26557 5.45793 36237 ft 405 kts 284°
2026-04-18 09:52 51.28377 5.37277 36229 ft 405 kts 284°
2026-04-18 09:52 51.30199 5.28770 36233 ft 404 kts 284°
2026-04-18 09:53 51.32020 5.20277 36247 ft 404 kts 283°
2026-04-18 09:53 51.33837 5.11771 36245 ft 403 kts 283°
2026-04-18 09:54 51.35642 5.03278 36239 ft 403 kts 283°
2026-04-18 09:54 51.37432 4.94778 36233 ft 402 kts 283°
2026-04-18 09:55 51.39222 4.86289 36225 ft 402 kts 283°
2026-04-18 09:55 51.41009 4.77795 36249 ft 402 kts 283°
2026-04-18 09:56 51.42784 4.69286 36234 ft 403 kts 283°
2026-04-18 09:56 51.44557 4.60763 36221 ft 403 kts 283°
2026-04-18 09:57 51.46323 4.52225 36220 ft 404 kts 283°
2026-04-18 09:57 51.48091 4.43671 36222 ft 404 kts 283°
2026-04-18 09:58 51.49848 4.35098 36252 ft 405 kts 283°
2026-04-18 09:58 51.51603 4.26514 36241 ft 405 kts 282°
2026-04-18 09:59 51.53350 4.17914 36233 ft 405 kts 282°
2026-04-18 10:00 51.55958 4.05003 36223 ft 405 kts 282°
2026-04-18 10:00 51.57690 3.96391 36228 ft 405 kts 282°
2026-04-18 10:01 51.59423 3.87767 36225 ft 405 kts 282°
2026-04-18 10:01 51.61150 3.79140 36237 ft 405 kts 282°
2026-04-18 10:02 51.62863 3.70484 36221 ft 406 kts 282°
2026-04-18 10:02 51.64575 3.61826 36212 ft 406 kts 282°
2026-04-18 10:03 51.66287 3.53160 36212 ft 406 kts 282°
2026-04-18 10:03 51.67702 3.45944 36213 ft 406 kts 282°
2026-04-18 10:04 51.69392 3.37253 36241 ft 407 kts 282°
2026-04-18 10:04 51.71356 3.27119 36235 ft 407 kts 282°
2026-04-18 10:05 51.72652 3.19779 36228 ft 403 kts 275°
2026-04-18 10:05 51.72743 3.10888 36224 ft 395 kts 259°
2026-04-18 10:06 51.71974 3.02118 36217 ft 396 kts 259°
2026-04-18 10:06 51.71209 2.93314 36210 ft 397 kts 259°
2026-04-18 10:06 51.70825 2.88905 36101 ft 398 kts 259°
2026-04-18 10:07 51.70435 2.84444 35034 ft 407 kts 259°
2026-04-18 10:07 51.70033 2.79896 34014 ft 411 kts 259°
2026-04-18 10:07 51.69631 2.75354 33205 ft 407 kts 259°
2026-04-18 10:07 51.69231 2.70859 32448 ft 403 kts 259°
2026-04-18 10:08 51.68836 2.66422 31802 ft 397 kts 259°
2026-04-18 10:08 51.68446 2.62044 31204 ft 392 kts 259°
2026-04-18 10:08 51.68060 2.57733 30633 ft 386 kts 259°
2026-04-18 10:08 51.67678 2.53480 30031 ft 381 kts 259°
2026-04-18 10:09 51.67302 2.49283 29353 ft 376 kts 259°
2026-04-18 10:09 51.66926 2.45137 28673 ft 373 kts 259°
2026-04-18 10:09 51.66549 2.41013 28040 ft 370 kts 259°
2026-04-18 10:09 51.66173 2.36926 27330 ft 369 kts 259°
2026-04-18 10:10 51.65797 2.32847 26754 ft 365 kts 260°
2026-04-18 10:10 51.65427 2.28843 26292 ft 359 kts 259°
2026-04-18 10:10 51.65056 2.24896 25835 ft 354 kts 259°
2026-04-18 10:10 51.64693 2.21057 25397 ft 349 kts 259°
2026-04-18 10:11 51.64331 2.17220 24961 ft 345 kts 259°
2026-04-18 10:11 51.63976 2.13428 24516 ft 341 kts 260°
2026-04-18 10:11 51.63626 2.09670 24082 ft 338 kts 260°
2026-04-18 10:11 51.63280 2.05942 23601 ft 335 kts 260°
2026-04-18 10:12 51.62939 2.02250 23137 ft 331 kts 260°
2026-04-18 10:12 51.62603 1.98603 22694 ft 327 kts 260°
2026-04-18 10:12 51.62271 1.95005 22254 ft 324 kts 260°
2026-04-18 10:12 51.61939 1.91439 21831 ft 321 kts 259°
2026-04-18 10:13 51.61607 1.87910 21373 ft 318 kts 258°
2026-04-18 10:13 51.61011 1.84520 20942 ft 314 kts 247°
2026-04-18 10:13 51.59972 1.81451 20488 ft 312 kts 236°
2026-04-18 10:13 51.58580 1.78779 20053 ft 311 kts 230°
2026-04-18 10:14 51.57143 1.76188 19626 ft 309 kts 230°
2026-04-18 10:14 51.55724 1.73605 19190 ft 308 kts 231°
2026-04-18 10:14 51.54316 1.71035 18804 ft 305 kts 231°
2026-04-18 10:14 51.52913 1.68485 18377 ft 304 kts 230°
2026-04-18 10:15 51.51512 1.65948 17945 ft 302 kts 230°
2026-04-18 10:15 51.50125 1.63439 17549 ft 299 kts 231°
2026-04-18 10:15 51.48921 1.60749 17146 ft 295 kts 242°
2026-04-18 10:15 51.48112 1.57740 16761 ft 293 kts 250°
2026-04-18 10:16 51.47421 1.54683 16382 ft 291 kts 249°
2026-04-18 10:16 51.46723 1.51643 16005 ft 289 kts 249°
2026-04-18 10:16 51.46026 1.48631 15636 ft 288 kts 249°
2026-04-18 10:16 51.45328 1.45631 15259 ft 286 kts 249°
2026-04-18 10:17 51.44633 1.42650 14891 ft 285 kts 249°
2026-04-18 10:17 51.43887 1.39710 14512 ft 284 kts 242°
2026-04-18 10:17 51.42784 1.37094 14152 ft 284 kts 229°
2026-04-18 10:17 51.41298 1.34937 14037 ft 293 kts 219°
2026-04-18 10:18 51.39652 1.32993 13877 ft 295 kts 219°
2026-04-18 10:18 51.38003 1.31044 13720 ft 294 kts 219°
2026-04-18 10:18 51.36677 1.29472 13595 ft 294 kts 219°
2026-04-18 10:18 51.35033 1.27526 13437 ft 294 kts 219°
2026-04-18 10:19 51.33392 1.25585 13283 ft 293 kts 219°
2026-04-18 10:19 51.31751 1.23644 13115 ft 294 kts 219°
2026-04-18 10:19 51.30102 1.21696 12976 ft 295 kts 219°
2026-04-18 10:19 51.28454 1.19738 12811 ft 294 kts 221°
2026-04-18 10:20 51.27168 1.17272 12645 ft 290 kts 244°
2026-04-18 10:20 51.26665 1.14172 12495 ft 291 kts 262°
2026-04-18 10:20 51.26509 1.10951 12338 ft 291 kts 264°
2026-04-18 10:20 51.26383 1.07723 12184 ft 291 kts 264°
2026-04-18 10:21 51.26261 1.04505 12030 ft 290 kts 264°
2026-04-18 10:21 51.26139 1.01287 11876 ft 290 kts 264°
2026-04-18 10:21 51.26017 0.98080 11725 ft 289 kts 264°
2026-04-18 10:21 51.25895 0.94883 11581 ft 289 kts 265°
2026-04-18 10:22 51.25768 0.91691 11386 ft 288 kts 264°
2026-04-18 10:22 51.25635 0.88509 11215 ft 287 kts 264°
2026-04-18 10:22 51.25501 0.85330 11046 ft 287 kts 264°
2026-04-18 10:22 51.25368 0.82195 10880 ft 287 kts 264°
2026-04-18 10:23 51.25230 0.78982 10712 ft 286 kts 264°
2026-04-18 10:23 51.25092 0.75865 10553 ft 283 kts 264°
2026-04-18 10:23 51.24957 0.72788 10374 ft 273 kts 264°
2026-04-18 10:23 51.24827 0.69809 10209 ft 267 kts 264°
2026-04-18 10:24 51.24696 0.66868 10047 ft 265 kts 264°
2026-04-18 10:24 51.24563 0.63933 9881 ft 265 kts 264°
2026-04-18 10:24 51.24429 0.61008 9703 ft 264 kts 264°
2026-04-18 10:24 51.24296 0.58085 9421 ft 265 kts 264°
2026-04-18 10:25 51.24164 0.55166 9006 ft 263 kts 264°
2026-04-18 10:25 51.24039 0.52265 8601 ft 261 kts 264°
2026-04-18 10:25 51.23919 0.49388 8212 ft 259 kts 264°
2026-04-18 10:25 51.23804 0.46532 7839 ft 257 kts 264°
2026-04-18 10:26 51.23684 0.43691 7456 ft 256 kts 264°
2026-04-18 10:26 51.23516 0.40869 7080 ft 254 kts 256°
2026-04-18 10:26 51.22741 0.38363 6707 ft 252 kts 237°
2026-04-18 10:26 51.22028 0.35851 6334 ft 250 kts 260°
2026-04-18 10:27 51.21820 0.33099 5943 ft 250 kts 260°
2026-04-18 10:27 51.21500 0.30378 5553 ft 250 kts 258°
2026-04-18 10:27 51.21133 0.27669 5174 ft 249 kts 258°
2026-04-18 10:27 51.20770 0.24974 4801 ft 248 kts 258°
2026-04-18 10:28 51.20411 0.22286 4426 ft 248 kts 259°
2026-04-18 10:28 51.20052 0.19596 4054 ft 248 kts 259°
2026-04-18 10:28 51.19697 0.16950 3859 ft 238 kts 259°
2026-04-18 10:28 51.19363 0.14468 3873 ft 220 kts 259°
2026-04-18 10:29 51.19051 0.12140 3751 ft 209 kts 259°
2026-04-18 10:29 51.18759 0.09979 3531 ft 190 kts 259°
2026-04-18 10:29 51.18492 0.07998 3276 ft 175 kts 260°
2026-04-18 10:29 51.18250 0.06211 3088 ft 155 kts 260°
2026-04-18 10:30 51.18034 0.04611 2876 ft 142 kts 260°
2026-04-18 10:30 51.17830 0.03101 2698 ft 137 kts 261°
2026-04-18 10:30 51.17633 0.01638 2522 ft 134 kts 261°
2026-04-18 10:30 51.17435 0.00179 2342 ft 134 kts 261°
2026-04-18 10:31 51.17240 -0.01258 2268 ft 132 kts 261°
2026-04-18 10:31 51.17045 -0.02695 2085 ft 133 kts 260°
2026-04-18 10:31 51.16850 -0.04129 1893 ft 132 kts 261°
2026-04-18 10:31 51.16656 -0.05558 1715 ft 132 kts 260°
2026-04-18 10:32 51.16462 -0.06983 1530 ft 132 kts 261°
2026-04-18 10:32 51.16267 -0.08412 1357 ft 132 kts 260°
2026-04-18 10:32 51.16072 -0.09839 1173 ft 132 kts 260°
2026-04-18 10:32 51.15877 -0.11270 994 ft 133 kts 260°
2026-04-18 10:33 51.15681 -0.12701 814 ft 131 kts 261°
2026-04-18 10:33 51.15488 -0.14112 644 ft 131 kts 261°
2026-04-18 10:33 51.15294 -0.15529 453 ft 132 kts 261°
2026-04-18 10:33 51.15105 -0.16956 308 ft 132 kts 262°
2026-04-18 10:34 51.14927 -0.18375 215 ft 124 kts 263°
2026-04-18 10:34 51.14766 -0.19482 209 ft 69 kts 257°
2026-04-18 10:34 51.14706 -0.19896 207 ft 28 kts 262°
2026-04-18 10:34 51.14726 -0.20143 208 ft 18 kts 276°
2026-04-18 10:35 51.14738 -0.20262 203 ft 5 kts 281°
2026-04-18 10:35 51.14748 -0.20355 207 ft 12 kts 279°
2026-04-18 10:35 51.14762 -0.20445 206 ft 0 kts 285°
2026-04-18 10:35 51.14763 -0.20450 202 ft 4 kts 285°
2026-04-18 10:36 51.14809 -0.20618 201 ft 23 kts 321°
2026-04-18 10:36 51.14893 -0.20545 206 ft 12 kts 67°
2026-04-18 10:36 51.14907 -0.20371 202 ft 21 kts 78°
2026-04-18 10:36 51.14942 -0.20100 212 ft 23 kts 85°
2026-04-18 10:37 51.14975 -0.19816 209 ft 29 kts 78°
2026-04-18 10:37 51.15027 -0.19484 207 ft 31 kts 72°
2026-04-18 10:37 51.15065 -0.19227 205 ft 22 kts 82°
2026-04-18 10:37 51.15089 -0.18976 209 ft 25 kts 82°
2026-04-18 10:38 51.15135 -0.18718 208 ft 24 kts 79°
2026-04-18 10:38 51.15164 -0.18466 208 ft 23 kts 79°
2026-04-18 10:38 51.15189 -0.18267 214 ft 0 kts 74°
2026-04-18 10:40 51.15230 -0.18226 206 ft 16 kts
2026-04-18 10:40 51.15357 -0.18267 207 ft 9 kts 348°
2026-04-18 10:40 51.15387 -0.18279 209 ft 2 kts 346°
2026-04-18 10:40 51.15420 -0.18292 205 ft 8 kts 345°
2026-04-18 10:41 51.15524 -0.18334 205 ft 21 kts 346°
2026-04-18 10:41 51.15649 -0.18284 212 ft 21 kts 81°
2026-04-18 10:41 51.15664 -0.18177 210 ft 1 kts 58°
2026-04-18 10:41 51.15683 -0.18096 209 ft 14 kts 73°
2026-04-18 10:42 51.15695 -0.18002 208 ft 4 kts 82°
2026-04-18 10:42 51.15711 -0.17871 208 ft 16 kts 77°
2026-04-18 10:42 51.15724 -0.17791 213 ft 15 kts 76°